Wetbulb
36.51 36.34 36.31 35.79 34.83 33.62 32.74 31.46 31.25 31.60 31.54 31.39 30.97 30.67 30.21 29.74 29.03 27.84 27.63 27.25 26.62 26.22 25.89 25.04 24.43 24.43 22.47 22.30 22.86 21.86 21.09 22.93 22.85 20.14 21.41 19.90 18.95 19.00 19.19 19.77 20.91 20.30 21.09
34.57 34.42 34.51 33.31 32.60 31.73 30.83 30.64 31.13 30.78 31.17 30.82 30.44 29.84 29.03 28.63 28.22 27.63 26.88 26.21 25.55 25.39 25.01 24.34 23.24 24.64 21.20 21.07 21.07 20.69 20.57 21.43 22.68 19.48 19.35 18.03 16.93 17.79 17.27 16.34 19.03 20.42 18.95
32.93 33.05 32.14 31.64 31.38 30.95 30.44 30.31 30.46 30.32 30.23 30.03 29.37 28.61 28.09 27.80 27.18 27.10 26.79 26.52 25.78 24.81 23.78 22.88 22.43 22.10 21.02 20.30 20.09 19.77 20.33 22.66 21.53 20.70 18.11 18.22 16.66 15.84 16.12 16.29 16.11 15.27 18.06
31.90 31.60 30.98 30.40 30.89 30.59 30.39 30.18 29.93 29.62 28.88 28.48 28.17 28.12 28.24 27.28 27.29 27.04 26.63 25.61 24.69 24.22 24.41 23.42 22.38 21.56 20.89 20.25 20.64 19.96 20.84 20.11 19.83 18.74 17.33 15.80 15.40 15.80 14.17 11.46 11.35 13.23 12.55
31.10 30.75 30.44 29.90 30.56 30.29 29.61 29.18 28.98 28.40 28.38 27.98 27.23 27.08 27.15 26.79 27.17 26.43 26.42 24.57 23.21 22.00 22.61 23.98 23.44 23.95 25.67 23.45 20.99 19.13 19.23 18.81 18.17 17.06 16.04 15.03 12.94 12.24 10.56 10.85 9.48 9.50 10.80
30.94 30.68 30.14 29.52 29.19 29.09 28.93 28.58 28.14 27.60 27.23 26.81 26.44 26.34 25.73 27.45 30.70 31.21 27.33 24.20 23.62 22.42 21.22 22.36 22.59 23.04 25.92 26.89 26.54 25.30 21.32 18.09 17.30 16.08 14.13 12.95 11.38 10.75 10.64 8.87 7.71 4.56 3.73
30.35 29.61 29.88 29.18 28.62 28.40 28.60 28.07 27.48 26.55 26.25 25.68 25.53 25.42 25.33 25.76 31.89 32.60 30.61 25.04 23.31 21.93 21.47 21.26 21.19 21.88 21.42 21.01 22.32 21.61 21.29 22.65 20.46 16.25 13.49 11.82 10.33 10.79 10.05 6.97 7.08 5.73 6.05
29.68 29.38 29.47 28.83 28.41 27.64 27.52 27.16 26.53 26.12 25.66 24.92 24.85 25.11 24.95 25.76 31.49 33.37 31.60 24.04 22.52 21.73 21.30 20.93 20.33 19.67 19.50 17.56 15.81 15.33 15.00 13.87 13.52 14.50 12.67 11.76 11.71 11.74 10.77 9.57 7.55 4.64 3.42
30.04 30.28 29.48 29.31 28.30 27.45 27.00 26.61 25.85 25.64 25.15 25.11 25.51 24.94 24.46 24.62 30.99 33.23 31.95 24.12 23.13 21.47 21.63 20.87 20.47 19.21 21.45 22.77 16.22 14.96 12.95 13.56 19.13 19.27 18.44 19.49 19.12 17.49 11.73 6.67 -3.79 -4.74 -3.74
31.89 31.16 29.70 29.31 28.59 27.68 27.55 25.99 24.61 24.77 26.51 25.71 25.89 24.66 23.77 23.97 29.88 32.52 32.16 24.25 21.83 20.81 20.78 20.66 23.36 20.44 23.55 25.02 16.01 13.32 8.40 9.58 9.26 6.06 9.85 13.63 11.26 12.60 11.90 8.00 5.44 -5.83 -4.43
28.87 28.62 28.29 28.04 28.44 28.47 26.82 24.60 24.64 25.53 24.98 23.58 23.65 22.22 22.52 23.58 25.19 32.02 33.51 24.08 22.94 20.01 19.76 18.97 20.01 25.69 24.88 25.40 22.33 14.01 10.99 10.07 11.22 4.11 4.48 4.52 4.92 5.11 5.27 6.38 7.08 4.68 -3.62
27.99 27.83 27.63 27.66 28.41 27.17 26.30 24.17 22.37 23.62 23.43 22.58 20.27 19.58 21.13 21.93 25.30 30.14 33.13 31.35 26.00 19.46 18.51 18.88 19.23 25.17 26.39 26.15 24.46 21.01 20.08 12.80 2.40 -0.44 -3.46 -2.45 -0.49 1.10 3.10 4.63 5.77 6.14 5.91
25.87 26.62 25.47 23.51 25.45 25.48 25.34 22.84 20.90 21.68 23.81 23.21 21.66 21.85 19.31 20.45 21.60 29.69 31.16 33.24 30.39 21.69 19.44 20.34 23.29 25.20 26.40 25.95 24.54 21.10 13.31 4.43 -1.34 -7.73 -5.78 -1.57 0.62 2.04 3.76 2.20 2.44 0.98 0.77
24.20 22.52 20.11 21.94 20.53 19.15 23.14 24.16 23.77 22.39 22.63 21.75 19.44 20.68 18.77 16.36 19.76 21.06 24.93 27.78 31.22 28.82 24.34 22.46 23.31 23.61 24.66 21.82 20.72 17.86 7.32 2.94 -0.52 -5.54 -6.09 -2.65 0.74 -1.89 -4.72 -2.20 -7.35 -6.40 -12.53
17.41 16.30 16.30 16.78 16.35 16.57 18.92 20.34 23.18 19.94 24.52 21.17 22.95 21.80 16.16 17.74 20.60 24.00 23.99 24.10 25.47 28.05 18.68 18.11 18.52 13.49 15.54 12.18 9.17 6.76 2.11 -1.38 -3.08 -6.30 -8.21 -7.58 -5.57 -6.02 -6.42 -8.62 -9.64 -16.80 -15.13
17.26 15.88 15.40 15.40 13.76 15.00 14.75 16.13 25.56 27.75 28.41 30.20 29.90 23.48 16.22 25.02 27.71 28.46 29.11 29.49 29.45 29.92 19.75 18.55 17.06 16.40 16.13 13.10 10.04 4.80 -4.24 -3.30 -3.17 -6.76 -11.04 -10.31 -7.80 -7.55 -10.01 -13.07 -12.89 -17.80 -18.10
14.07 13.59 12.75 14.14 12.17 11.32 9.89 12.62 17.87 18.38 29.30 30.73 30.72 31.22 30.91 27.40 27.74 29.34 29.62 29.71 30.27 30.01 19.55 17.46 17.75 15.80 15.64 13.38 10.90 6.64 4.47 -0.29 -6.23 -6.13 -6.91 -8.87 -10.15 -14.71 -14.46 -15.59 -13.76 -14.37 -19.20
4.87 9.10 8.61 10.67 9.43 7.63 8.39 9.26 8.22 10.44 12.53 12.21 23.05 30.37 31.32 31.31 31.54 30.75 30.29 29.58 26.75 28.73 27.04 18.48 17.30 16.69 16.32 13.54 10.96 8.45 7.15 -3.05 -3.33 -6.16 -8.56 -10.44 -12.32 -13.48 -18.39 -14.88 -14.61 -19.80 -21.77
6.69 7.00 4.83 3.79 3.99 6.21 5.86 5.88 7.10 7.43 9.17 7.28 7.37 19.57 21.43 29.34 31.22 31.53 31.91 27.10 25.36 25.50 26.63 18.05 17.10 17.17 14.71 13.17 11.23 8.98 7.64 1.23 -3.86 -13.21 -11.28 -11.28 -13.41 -16.53 -14.63 -13.06 -14.93 -14.55 -19.10
1.65 6.20 4.36 1.38 2.41 2.72 3.71 5.72 4.95 3.88 4.40 7.98 10.24 15.85 18.73 23.92 24.69 26.34 29.77 27.12 26.17 25.75 24.76 15.79 16.07 15.33 13.76 10.72 9.08 7.38 3.44 -3.60 -6.79 -8.81 -9.64 -11.47 -11.59 -13.14 -10.08 -13.59 -16.17 -16.27 -18.24
-1.67 -0.79 3.40 0.23 0.03 -0.02 0.78 2.19 4.25 3.32 6.88 14.39 15.89 18.73 25.90 23.59 23.39 24.71 26.67 26.13 24.86 24.85 20.64 15.04 15.58 14.90 12.11 10.33 8.87 3.72 1.77 -1.51 -3.93 -5.81 -7.80 -10.28 -13.07 -17.05 -12.20 -10.99 -13.88 -15.86 -16.14
-2.70 -3.41 -3.59 -1.83 -1.69 -0.27 0.70 2.50 5.27 11.66 10.59 14.27 20.46 21.78 26.10 23.80 22.64 22.82 23.31 22.14 23.68 24.87 21.91 17.26 16.55 13.79 13.21 9.82 6.77 4.23 2.08 -1.38 -3.49 -4.79 -6.21 -9.00 -10.99 -12.77 -16.27 -15.07 -14.68 -14.24 -17.51
-3.19 -2.16 -2.43 -3.65 -3.32 0.40 2.93 15.43 17.12 17.65 20.22 20.93 19.87 16.86 9.67 12.23 16.76 18.95 19.28 18.13 16.66 18.28 18.48 17.44 17.42 14.30 13.06 11.01 8.86 6.70 4.98 1.47 1.01 -1.27 -4.32 -8.08 -10.86 -12.07 -12.71 -11.79 -14.89 -17.04 -17.05
-5.26 -3.94 -2.96 -2.40 6.37 -0.60 -0.84 1.34 3.88 7.88 10.24 11.21 10.40 9.93 9.65 10.05 12.88 14.62 16.78 14.76 14.83 15.83 15.64 16.11 16.76 15.40 12.42 10.04 8.05 6.31 6.61 5.18 1.88 -0.64 -1.41 -5.05 -7.75 -8.97 -11.01 -14.20 -13.96 -12.93 -13.92
-7.83 -5.89 -4.88 -3.72 -3.41 -2.03 -1.40 -0.53 1.19 1.93 4.28 5.60 7.46 5.48 5.99 7.55 9.44 12.71 12.81 11.42 13.78 14.27 13.73 14.09 14.83 14.42 12.72 10.16 7.87 6.36 6.21 6.81 0.61 -0.74 -2.26 -4.21 -5.31 -7.68 -8.75 -10.65 -12.73 -13.69 -13.25
-8.50 -7.67 -7.11 -6.44 -5.42 -5.17 -4.44 -1.98 -0.36 1.26 1.99 3.64 5.16 6.28 6.29 7.20 7.66 9.32 11.57 8.15 11.03 12.55 13.05 12.99 13.38 13.20 13.06 11.69 9.66 8.59 6.70 6.75 1.12 -0.42 -1.98 -2.72 -4.83 -7.57 -10.12 -11.09 -12.07 -11.98 -12.64
MSLP
1022.58 1022.96 1023.26 1023.68 1024.20 1024.76 1025.34 1025.86 1026.44 1026.94 1027.41 1027.73 1027.93 1028.27 1028.76 1028.94 1029.47 1029.62 1029.90 1030.33 1030.40 1030.49 1030.52 1030.58 1030.86 1030.91 1031.06 1031.09 1031.21 1031.05 1030.79 1030.59 1030.83 1031.56 1031.60 1032.17 1032.31 1032.27 1032.17 1032.09 1031.94 1031.89 1031.75
1022.72 1023.06 1023.53 1024.09 1024.54 1025.09 1025.65 1026.02 1026.36 1026.85 1027.31 1027.80 1028.17 1028.46 1028.73 1029.06 1029.51 1029.94 1030.05 1030.27 1030.36 1030.64 1030.82 1030.81 1031.06 1030.96 1031.24 1031.26 1031.45 1031.55 1031.15 1030.66 1030.82 1031.20 1031.59 1032.13 1032.44 1032.33 1032.29 1032.28 1032.08 1031.93 1031.92
1022.75 1023.16 1023.65 1024.17 1024.70 1025.16 1025.56 1026.04 1026.45 1026.87 1027.34 1027.75 1028.45 1028.65 1028.83 1029.23 1029.65 1029.83 1029.96 1030.37 1030.44 1030.62 1030.81 1030.77 1030.94 1031.05 1030.94 1030.95 1031.10 1031.26 1031.45 1031.23 1030.93 1031.02 1031.68 1032.20 1032.53 1032.63 1032.31 1032.26 1032.18 1032.23 1032.02
1022.48 1023.00 1023.62 1024.00 1024.46 1025.10 1025.67 1026.11 1026.48 1026.89 1027.40 1027.79 1028.23 1028.64 1028.75 1029.06 1029.49 1029.82 1030.05 1030.23 1030.42 1030.61 1030.71 1030.96 1031.23 1031.11 1031.38 1030.78 1030.88 1031.10 1031.14 1031.04 1031.62 1031.56 1031.88 1032.35 1032.52 1032.61 1032.78 1032.95 1032.72 1032.63 1032.41
1022.14 1022.90 1023.37 1023.98 1024.58 1025.24 1025.77 1026.12 1026.56 1026.84 1027.17 1027.74 1028.00 1028.53 1028.61 1028.80 1029.24 1029.32 1029.60 1030.01 1030.24 1030.58 1030.90 1030.92 1031.16 1030.92 1030.93 1030.57 1030.28 1030.89 1031.04 1031.26 1031.68 1032.08 1032.27 1032.50 1032.73 1032.95 1033.23 1033.45 1033.43 1033.12 1032.73
1021.90 1022.47 1023.38 1024.02 1024.40 1025.01 1025.71 1025.87 1026.58 1027.07 1027.49 1027.60 1027.95 1028.19 1028.30 1028.34 1028.64 1028.74 1029.17 1029.59 1030.01 1030.35 1030.48 1030.78 1031.09 1031.33 1031.10 1030.87 1030.22 1030.27 1030.65 1030.98 1031.55 1032.23 1032.64 1032.89 1033.03 1033.25 1033.50 1033.74 1033.89 1033.79 1033.44
1021.39 1022.12 1022.93 1023.53 1024.21 1024.68 1025.22 1025.78 1026.29 1026.70 1027.08 1027.24 1027.68 1027.94 1028.26 1028.31 1028.17 1028.25 1028.67 1029.19 1029.73 1030.16 1030.49 1030.64 1030.91 1031.32 1031.51 1031.73 1031.53 1031.26 1030.91 1030.95 1031.45 1031.80 1032.57 1033.04 1033.25 1033.42 1033.60 1033.92 1034.16 1034.24 1033.87
1021.36 1022.06 1022.55 1023.33 1023.78 1024.40 1024.88 1025.51 1025.91 1026.35 1026.60 1026.94 1027.45 1027.53 1027.67 1027.79 1027.59 1027.74 1028.23 1028.77 1029.25 1029.58 1029.95 1030.32 1030.52 1030.99 1031.38 1031.52 1032.17 1032.18 1031.90 1031.85 1032.24 1032.15 1032.56 1033.05 1033.25 1033.52 1033.65 1033.86 1034.20 1034.29 1033.98
1020.69 1021.19 1021.99 1022.54 1023.24 1023.97 1024.50 1025.01 1025.46 1025.95 1026.30 1026.58 1026.73 1026.90 1026.95 1027.03 1026.95 1027.08 1027.67 1028.23 1028.78 1029.00 1029.33 1029.74 1030.06 1030.51 1030.77 1030.67 1031.66 1032.15 1032.26 1032.09 1031.86 1032.26 1032.40 1032.49 1032.84 1033.14 1033.73 1034.24 1034.69 1034.53 1034.36
1019.77 1020.50 1021.30 1022.06 1022.89 1023.45 1023.85 1024.30 1024.61 1024.86 1025.25 1025.52 1025.89 1026.07 1026.41 1026.61 1026.49 1026.40 1026.77 1027.79 1028.32 1028.61 1028.97 1029.24 1029.38 1029.81 1029.88 1029.82 1031.00 1031.80 1032.37 1032.40 1032.46 1033.09 1033.10 1033.09 1033.58 1033.46 1033.74 1034.10 1034.37 1034.67 1034.77
1019.61 1020.21 1020.95 1021.51 1022.16 1022.53 1023.02 1023.44 1023.87 1024.64 1025.18 1025.39 1025.72 1025.87 1026.00 1026.29 1026.33 1026.15 1026.02 1026.91 1027.40 1028.06 1028.53 1028.81 1029.08 1028.75 1029.11 1029.28 1030.21 1031.29 1031.64 1032.24 1032.18 1033.06 1033.56 1033.97 1034.17 1034.23 1034.28 1034.29 1034.26 1034.38 1034.60
1019.26 1019.80 1020.41 1020.83 1021.36 1021.99 1022.52 1023.19 1023.47 1024.19 1024.60 1024.80 1025.17 1025.44 1025.44 1025.65 1025.82 1025.77 1025.56 1025.82 1026.70 1027.40 1027.89 1028.22 1028.65 1028.48 1028.49 1028.76 1029.22 1030.32 1030.74 1031.73 1033.20 1033.58 1033.98 1034.28 1034.28 1034.22 1034.21 1034.18 1034.14 1034.15 1034.12
1019.66 1020.04 1020.30 1020.77 1021.12 1021.52 1021.98 1022.63 1023.17 1023.67 1023.88 1024.02 1024.61 1024.91 1025.01 1025.17 1025.57 1025.31 1025.28 1025.13 1025.66 1026.65 1027.36 1027.64 1027.72 1027.77 1027.85 1028.10 1028.92 1029.73 1030.82 1032.09 1033.07 1034.19 1034.28 1034.11 1033.98 1033.84 1033.89 1034.14 1034.17 1034.24 1034.10
1020.13 1020.44 1020.67 1020.83 1021.40 1021.80 1021.64 1021.83 1022.12 1022.69 1022.99 1023.63 1024.05 1024.36 1024.37 1024.63 1024.62 1024.93 1025.15 1024.91 1024.71 1025.44 1026.31 1026.89 1026.91 1027.24 1027.38 1028.08 1028.67 1029.37 1030.98 1031.59 1032.32 1033.26 1033.77 1033.72 1033.72 1034.08 1034.20 1034.31 1034.70 1034.84 1034.83
1020.47 1020.60 1020.86 1020.98 1021.22 1021.81 1021.74 1022.01 1022.15 1021.98 1022.11 1022.54 1022.60 1023.13 1023.58 1023.75 1023.54 1024.01 1024.16 1024.23 1024.29 1024.56 1026.12 1026.61 1026.65 1027.02 1027.44 1028.16 1028.93 1029.79 1030.78 1031.65 1032.17 1032.68 1033.38 1033.69 1033.85 1034.11 1034.33 1034.62 1034.78 1035.04 1035.29
1020.84 1021.28 1021.66 1021.63 1021.66 1021.98 1022.12 1022.03 1022.01 1021.73 1021.87 1021.76 1021.88 1022.10 1022.31 1022.41 1022.62 1022.71 1023.03 1023.35 1023.59 1024.04 1025.10 1025.56 1025.97 1026.44 1026.97 1027.73 1028.67 1029.74 1030.63 1031.22 1031.67 1032.06 1032.78 1033.32 1033.63 1033.97 1034.20 1034.43 1034.70 1034.98 1035.26
1021.42 1021.58 1021.93 1022.05 1022.20 1022.29 1022.40 1022.55 1022.53 1021.79 1021.70 1021.59 1021.43 1021.46 1021.53 1021.92 1022.05 1022.19 1022.25 1022.49 1022.75 1023.31 1023.76 1024.46 1024.95 1025.56 1026.16 1026.90 1027.69 1028.64 1029.45 1030.20 1031.12 1031.50 1031.96 1032.57 1033.07 1033.57 1034.05 1034.22 1034.41 1034.66 1034.71
1022.12 1022.07 1022.41 1022.39 1022.49 1022.62 1022.50 1022.76 1022.78 1022.66 1022.34 1021.58 1021.09 1021.03 1021.06 1021.30 1021.30 1021.47 1021.54 1021.83 1022.19 1022.22 1022.40 1023.35 1023.99 1024.60 1025.25 1025.98 1026.76 1027.50 1028.30 1029.30 1030.21 1030.73 1031.18 1031.73 1032.41 1032.98 1033.72 1033.64 1033.94 1034.16 1034.12
1022.55 1022.71 1022.21 1022.36 1022.41 1022.47 1022.76 1023.00 1022.77 1022.58 1022.27 1021.98 1021.74 1021.17 1020.93 1020.64 1020.57 1020.65 1020.82 1021.07 1021.39 1021.59 1021.90 1022.60 1023.09 1023.64 1024.36 1025.05 1025.72 1026.45 1027.10 1028.01 1028.82 1029.71 1030.15 1030.84 1031.51 1032.23 1032.62 1032.58 1032.96 1033.22 1033.49
1022.24 1022.41 1022.45 1022.77 1022.84 1022.77 1022.95 1022.93 1022.71 1022.44 1022.05 1021.64 1021.43 1021.10 1020.79 1020.41 1020.30 1020.17 1019.92 1020.15 1020.45 1020.65 1021.02 1021.88 1022.42 1022.96 1023.49 1024.07 1024.73 1025.45 1026.26 1027.06 1027.86 1028.63 1029.12 1029.67 1030.29 1030.88 1031.25 1031.60 1032.11 1032.37 1032.37
1022.58 1022.57 1022.42 1022.51 1022.67 1022.80 1022.96 1022.82 1022.54 1021.90 1021.77 1021.50 1021.16 1020.75 1020.32 1020.24 1020.10 1020.00 1019.78 1019.61 1019.72 1019.88 1020.30 1020.98 1021.54 1022.07 1022.59 1023.11 1023.72 1024.46 1025.15 1025.82 1026.55 1027.22 1027.89 1028.49 1029.17 1029.96 1029.96 1030.29 1030.75 1031.23 1031.51
1022.59 1022.75 1022.88 1023.07 1023.25 1023.25 1022.89 1022.52 1022.02 1021.62 1021.58 1021.37 1020.89 1020.35 1020.13 1020.08 1020.00 1019.84 1019.62 1019.52 1019.43 1019.36 1019.45 1019.99 1020.50 1020.94 1021.31 1021.81 1022.37 1023.12 1023.79 1024.36 1024.98 1025.59 1026.26 1026.91 1027.66 1028.28 1028.89 1029.51 1030.00 1030.31 1030.79
1022.77 1022.92 1023.21 1023.59 1023.55 1023.26 1022.63 1022.25 1021.90 1021.65 1021.47 1021.19 1020.89 1020.67 1020.59 1020.40 1020.04 1019.81 1019.56 1019.30 1019.11 1019.00 1019.08 1019.34 1019.59 1020.00 1020.31 1020.65 1021.05 1021.50 1021.99 1022.37 1022.61 1023.52 1024.50 1025.47 1026.35 1027.10 1027.87 1028.41 1029.01 1029.64 1029.93
1022.70 1023.13 1023.81 1023.59 1023.31 1023.08 1022.71 1022.29 1021.94 1021.74 1021.59 1021.35 1021.08 1020.85 1020.56 1020.17 1019.82 1019.51 1019.20 1018.94 1018.84 1018.79 1018.76 1018.79 1018.80 1018.96 1019.37 1019.78 1020.13 1020.44 1020.62 1020.88 1021.47 1022.18 1022.92 1023.95 1024.97 1025.91 1026.72 1027.34 1027.85 1028.32 1028.81
1023.16 1023.69 1023.64 1023.44 1023.44 1023.15 1022.73 1022.40 1022.10 1021.88 1021.68 1021.42 1021.10 1020.81 1020.39 1020.06 1019.76 1019.37 1019.02 1018.71 1018.52 1018.39 1018.35 1018.36 1018.35 1018.36 1018.51 1018.77 1019.08 1019.35 1019.61 1020.09 1020.73 1021.40 1022.25 1023.00 1023.69 1024.59 1025.43 1026.14 1026.86 1027.52 1027.92
1023.53 1023.40 1023.46 1023.54 1023.65 1023.36 1023.03 1022.59 1022.25 1021.97 1021.65 1021.28 1020.84 1020.48 1020.12 1019.75 1019.36 1019.03 1018.67 1018.29 1018.09 1017.92 1017.79 1017.73 1017.64 1017.66 1017.72 1017.92 1018.15 1018.45 1018.90 1019.46 1020.18 1020.72 1021.43 1022.17 1022.95 1023.84 1024.56 1025.18 1025.93 1026.57 1027.01
Wind_Speed
6 5 7 6 6 6 6 6 6 5 6 6 6 6 5 5 4 5 5 4 5 4 3 4 4 2 2 3 2 2 1 0 1 1 2 2 2 2 3 3 4 3 4
6 6 6 6 6 6 6 6 7 7 5 6 5 6 5 5 5 5 5 4 5 5 4 4 2 2 3 3 2 3 2 1 1 2 2 2 2 2 1 2 3 4 4
6 6 6 6 7 7 7 6 6 6 6 6 5 5 5 5 5 4 5 5 4 4 4 4 3 2 3 2 2 2 2 2 1 2 2 1 1 2 1 2 2 3 4
7 7 7 7 7 6 6 6 6 6 6 6 5 5 5 6 5 4 5 5 5 4 3 3 1 1 2 4 3 0 1 2 2 2 2 2 1 1 2 2 3 2 3
7 7 7 6 6 6 6 6 6 6 6 6 6 5 5 5 4 6 6 5 5 5 4 3 1 2 3 4 4 2 2 2 1 0 1 1 0 2 1 2 2 3 2
7 7 6 7 7 7 6 7 6 5 5 6 6 6 6 4 10 12 8 6 6 6 5 4 3 2 4 5 9 8 5 3 3 1 0 2 2 1 1 1 1 3 4
8 7 8 7 7 7 7 7 7 7 6 6 6 5 5 5 12 13 13 5 5 5 5 5 4 3 3 3 6 8 8 8 2 2 3 2 2 2 2 1 0 2 3
7 7 7 7 7 6 7 7 6 5 7 6 6 7 6 6 13 14 14 6 5 6 6 6 6 6 6 5 3 2 4 4 3 3 3 3 3 3 2 1 1 3 3
9 11 9 9 9 8 8 8 6 5 5 6 5 8 8 7 14 15 13 6 6 6 6 6 6 6 11 11 5 4 2 2 3 7 8 7 9 7 4 2 2 3 3
10 8 7 8 7 9 9 8 5 5 9 7 8 7 7 7 15 17 14 6 5 5 5 6 12 9 13 14 7 5 5 4 4 2 3 5 4 3 3 1 2 2 1
7 8 8 7 9 10 8 5 6 7 5 6 7 5 6 8 8 18 19 7 6 5 5 4 5 15 13 13 11 6 6 4 7 4 2 2 1 1 1 1 1 2 2
7 7 8 8 8 6 8 6 5 6 7 7 6 5 5 5 11 16 19 18 12 6 6 5 6 15 14 13 9 10 9 7 3 3 2 1 2 2 2 2 3 3 4
5 5 5 5 6 6 8 6 4 6 8 7 6 7 3 4 4 17 18 20 19 7 5 10 14 15 16 12 11 9 4 5 4 2 3 2 2 2 2 0 2 3 5
3 3 2 4 3 2 3 4 6 7 7 4 4 6 4 3 5 5 6 8 16 14 14 8 10 12 12 8 8 7 5 5 5 3 3 2 1 1 1 2 1 1 2
2 1 2 2 3 3 2 4 5 3 7 6 8 5 5 6 7 11 11 8 8 9 7 3 4 2 4 3 2 3 4 4 4 4 3 3 2 2 2 2 2 1 1
2 1 1 0 0 1 1 3 8 10 11 14 11 8 2 11 8 13 18 20 20 19 5 6 8 8 9 7 7 6 2 5 4 4 3 3 3 4 3 2 2 3 3
1 1 1 1 2 1 1 2 4 3 11 13 14 15 16 11 12 15 13 16 19 18 6 8 8 9 8 8 8 7 8 7 5 5 5 5 4 2 3 3 2 3 2
2 1 2 2 2 2 2 3 2 3 3 4 7 13 14 17 18 17 14 12 7 14 9 9 9 8 8 8 8 8 7 4 6 5 5 5 5 4 3 4 4 4 3
1 2 1 2 2 2 1 2 2 2 3 3 3 5 7 14 17 18 18 8 8 8 9 6 7 8 8 7 7 7 7 7 7 5 5 5 5 5 5 4 4 5 4
1 2 0 1 1 1 1 2 2 3 3 3 3 4 3 3 4 6 7 8 8 8 7 7 7 7 7 7 7 7 6 5 6 6 6 5 6 6 6 5 5 4 5
1 1 2 2 1 1 2 3 4 2 2 3 3 4 10 5 5 6 7 7 8 7 6 7 7 8 7 7 7 6 7 6 7 7 6 6 6 5 6 5 4 5 4
2 2 2 2 2 2 3 3 3 2 3 4 4 3 11 4 4 5 7 6 6 7 6 7 7 8 8 9 9 8 8 8 8 8 7 7 7 6 4 4 4 4 4
2 3 4 2 1 3 2 2 1 2 3 2 2 3 3 4 5 6 5 5 4 4 5 6 7 7 7 7 8 9 10 11 11 9 9 8 7 6 6 6 5 4 4
3 2 2 3 1 2 2 3 2 3 4 4 4 4 5 5 6 6 6 4 4 4 4 6 7 9 8 8 7 8 8 7 7 9 11 8 7 7 5 4 5 6 4
2 1 1 2 2 3 3 3 3 3 4 4 4 4 4 5 5 6 5 5 5 5 6 6 6 8 11 12 11 13 12 13 9 9 8 8 8 10 7 5 4 4 4
1 1 2 2 2 2 2 2 3 3 4 4 4 5 5 5 5 6 6 5 5 6 7 5 8 11 11 10 12 13 13 13 11 12 8 8 8 6 6 5 8 4 5
Wind_Direction
165 159 151 153 144 136 144 148 145 128 137 142 141 132 133 124 110 99 94 105 98 101 100 94 83 84 54 41 22 17 21 191 182 110 96 80 70 54 22 1 12 19 345
165 156 153 137 140 140 134 144 151 144 147 142 136 140 137 127 119 121 123 134 130 114 112 97 99 100 76 49 25 8 351 359 171 149 141 117 72 351 23 25 7 15 331
163 160 155 156 157 158 159 150 146 143 145 140 141 151 144 133 135 152 145 135 126 119 127 138 161 153 137 121 121 56 350 357 335 138 118 100 107 17 334 351 351 354 328
171 168 173 174 170 160 153 154 150 152 148 152 162 158 154 151 166 157 145 142 136 138 133 130 159 143 205 147 107 101 95 79 22 82 91 130 138 87 76 10 332 357 321
169 179 186 167 154 151 154 155 158 165 168 167 150 170 165 166 180 176 169 157 145 145 144 141 143 157 201 184 138 145 117 86 99 347 128 134 129 47 38 360 300 315 302
180 187 156 162 168 169 167 165 172 167 169 163 180 182 188 190 199 189 173 166 162 167 163 157 137 110 108 107 108 106 113 144 178 161 171 222 159 108 70 19 335 1 329
180 164 173 174 174 177 173 167 176 184 175 187 199 184 202 208 207 196 189 170 170 177 175 165 166 159 135 96 91 85 67 66 68 151 188 199 148 162 122 36 316 235 259
181 174 182 178 182 177 176 183 184 177 190 189 196 195 198 213 215 204 193 170 184 187 182 182 178 175 193 158 151 118 92 86 58 66 106 132 120 116 110 109 341 303 295
188 192 186 180 184 184 186 193 185 181 194 199 192 197 202 207 213 211 195 179 196 194 191 189 187 181 208 193 170 175 130 104 105 121 137 138 144 137 121 80 357 40 317
197 194 168 175 181 189 194 187 175 178 204 194 209 201 196 202 213 216 204 176 193 189 195 193 199 192 207 210 172 175 192 204 151 59 32 92 66 87 92 73 143 144 255
148 161 171 176 187 197 190 174 176 198 199 208 217 203 205 201 214 221 217 188 194 191 196 190 198 210 210 218 185 175 200 165 197 151 120 99 89 112 157 186 209 179 182
160 167 181 191 196 181 176 186 176 181 203 214 205 224 222 204 212 225 224 208 198 185 198 191 193 212 211 215 218 191 213 149 102 113 114 209 207 214 211 206 237 243 251
150 181 181 173 179 178 184 181 173 186 206 215 212 227 224 199 215 228 231 230 207 197 180 201 206 214 219 217 191 206 159 131 132 147 205 213 203 184 161 359 315 319 285
163 198 177 185 199 206 191 177 189 194 203 201 191 223 222 184 210 207 224 234 232 206 203 208 206 209 212 184 179 180 156 160 162 172 203 206 154 151 174 157 178 351 339
112 164 204 183 180 196 208 190 213 220 192 193 215 206 177 226 227 217 210 213 214 206 155 151 177 128 171 147 143 150 149 153 168 161 168 189 195 178 203 148 151 74 202
105 39 286 285 204 189 187 275 251 236 225 231 226 200 228 234 233 232 232 233 228 213 177 186 198 195 199 188 188 189 186 188 194 165 164 186 201 205 196 167 152 183 207
85 356 340 245 229 212 221 210 263 306 253 242 240 243 235 233 238 244 245 246 235 223 198 201 208 201 202 194 192 191 206 206 160 183 181 195 193 199 181 202 200 202 249
18 305 239 246 216 212 197 229 209 216 254 286 267 249 252 255 256 233 232 237 233 231 215 200 207 196 201 199 196 199 207 163 190 193 187 185 190 182 193 215 206 210 216
25 297 323 293 265 245 219 239 230 231 249 262 320 303 283 269 265 253 224 218 222 229 227 203 199 195 195 196 199 200 198 193 188 177 190 183 187 171 222 218 211 210 201
46 335 250 256 314 322 263 245 251 241 243 242 244 241 251 244 253 258 235 212 218 223 221 189 196 192 197 195 194 195 194 181 185 193 195 184 185 186 218 204 197 205 210
60 2 14 37 16 266 229 230 236 206 231 246 241 237 274 260 259 257 259 225 223 221 202 191 192 200 199 197 193 187 196 195 196 196 187 192 176 195 208 205 196 209 208
49 29 38 12 336 289 254 240 238 210 238 250 253 243 275 278 276 270 255 238 231 231 203 194 198 200 198 195 193 191 196 199 196 194 192 186 186 195 177 186 199 208 193
56 37 23 327 272 291 316 258 247 248 263 276 300 289 280 262 259 264 259 245 229 219 193 197 204 204 202 200 193 194 195 202 203 185 186 181 183 185 186 198 186 198 198
49 44 277 278 327 320 293 289 297 293 285 279 275 267 261 257 260 261 263 254 248 239 212 213 213 209 205 202 199 201 210 203 176 186 176 173 181 176 173 172 184 201 186
37 292 333 324 301 285 306 298 288 278 272 266 270 267 267 267 271 271 269 259 254 242 230 223 222 223 217 206 204 206 209 200 180 166 169 167 173 173 179 177 163 179 181
313 354 334 319 304 301 287 287 278 278 278 277 275 270 268 269 265 269 273 263 261 256 250 234 232 228 224 220 218 211 202 194 181 174 165 167 166 169 167 171 176 175 173